| time (UTC) | temp C | wind direction | speed KPH | gust KPH | rain 1hr cm | rain 24hr cm | rain mn cm | humidity % | barometer mb |
| 20260503224550 | 13 | 271 | 0.0 | 0.0 | 0.00 | 0.00 | 0.00 | 63 | 1015.1 |
| 20260503223045 | 13 | 271 | 0.0 | 0.0 | 0.00 | 0.00 | 0.00 | 61 | 1015.2 |
| 20260503221541 | 13 | 271 | 0.0 | 0.0 | 0.00 | 0.00 | 0.00 | 60 | 1015.0 |
| 20260503220040 | 14 | 271 | 0.0 | 0.0 | 0.00 | 0.00 | 0.00 | 57 | 1014.9 |
| 20260503214544 | 15 | 271 | 0.0 | 0.0 | 0.00 | 0.00 | 0.00 | 54 | 1014.9 |
| 20260503213052 | 15 | 271 | 0.0 | 0.0 | 0.00 | 0.00 | 0.00 | 53 | 1014.9 |
| 20260503211556 | 15 | 271 | 0.0 | 0.0 | 0.00 | 0.00 | 0.00 | 51 | 1014.8 |
| 20260503210036 | 16 | 271 | 0.0 | 0.0 | 0.00 | 0.00 | 0.00 | 51 | 1014.6 |
| 20260503204552 | 16 | 271 | 0.0 | 1.6 | 0.00 | 0.00 | 0.00 | 49 | 1014.5 |
| 20260503203037 | 16 | 271 | 0.0 | 1.6 | 0.00 | 0.00 | 0.00 | 49 | 1014.3 |
| 20260503201538 | 16 | 271 | 0.0 | 3.2 | 0.00 | 0.00 | 0.00 | 48 | 1014.4 |
| 20260503200034 | 17 | 271 | 0.0 | 6.4 | 0.00 | 0.00 | 0.00 | 47 | 1014.2 |
| 20260503194534 | 17 | 290 | 0.0 | 1.6 | 0.00 | 0.00 | 0.00 | 46 | 1014.0 |
| 20260503193034 | 17 | 290 | 1.6 | 4.8 | 0.00 | 0.00 | 0.00 | 44 | 1014.0 |
| 20260503191546 | 18 | 269 | 0.0 | 6.4 | 0.00 | 0.00 | 0.00 | 45 | 1013.8 |
| 20260503190039 | 18 | 273 | 0.0 | 8.0 | 0.00 | 0.00 | 0.00 | 45 | 1013.6 |
| 20260503184535 | 19 | 286 | 1.6 | 16.1 | 0.00 | 0.00 | 0.00 | 48 | 1013.4 |
| 20260503183040 | 20 | 254 | 0.0 | 1.6 | 0.00 | 0.00 | 0.00 | 54 | 1012.7 |
| 20260503181532 | 20 | 254 | 0.0 | 1.6 | 0.00 | 0.00 | 0.00 | 52 | 1012.5 |
| 20260503180034 | 20 | 265 | 0.0 | 3.2 | 0.00 | 0.00 | 0.00 | 50 | 1012.4 |
| 20260503174541 | 21 | 265 | 0.0 | 1.6 | 0.00 | 0.00 | 0.00 | 48 | 1012.2 |
| 20260503173030 | 21 | 231 | 0.0 | 6.4 | 0.00 | 0.00 | 0.00 | 46 | 1012.1 |
| 20260503171533 | 22 | 269 | 0.0 | 4.8 | 0.00 | 0.00 | 0.00 | 42 | 1012.1 |
| 20260503081538 | 18 | 360 | 0.0 | 1.6 | 0.00 | 0.00 | 0.00 | 54 | 1015.6 |
| 20260503071512 | 16 | 5 | 0.0 | 0.0 | 0.00 | 0.00 | 0.00 | 62 | 1015.6 |
| 20260503060122 | 12 | 351 | 0.0 | 0.0 | 0.00 | 0.00 | 0.00 | 72 | 1015.5 |
| 20260503054600 | 10 | 351 | 0.0 | 0.0 | 0.00 | 0.00 | 0.00 | 78 | 1015.5 |
| 20260503053057 | 8 | 351 | 0.0 | 0.0 | 0.00 | 0.00 | 0.00 | 82 | 1015.5 |
| 20260503051556 | 8 | 351 | 0.0 | 0.0 | 0.00 | 0.00 | 0.00 | 81 | 1015.5 |
| 20260503044555 | 7 | 351 | 0.0 | 0.0 | 0.00 | 0.00 | 0.00 | 81 | 1015.6 |
| 20260503043054 | 7 | 351 | 0.0 | 0.0 | 0.00 | 0.00 | 0.00 | 80 | 1015.5 |
| 20260503041553 | 7 | 351 | 0.0 | 0.0 | 0.00 | 0.00 | 0.00 | 80 | 1015.6 |
| 20260503040055 | 7 | 351 | 0.0 | 0.0 | 0.00 | 0.00 | 0.00 | 79 | 1015.4 |
| 20260503034554 | 8 | 351 | 0.0 | 0.0 | 0.00 | 0.00 | 0.00 | 79 | 1015.4 |
| 20260503033058 | 8 | 351 | 0.0 | 0.0 | 0.00 | 0.00 | 0.00 | 79 | 1015.3 |
| 20260503031549 | 8 | 351 | 0.0 | 0.0 | 0.00 | 0.00 | 0.00 | 79 | 1015.4 |
| 20260503030049 | 8 | 351 | 0.0 | 0.0 | 0.00 | 0.00 | 0.00 | 78 | 1015.4 |
| 20260503024550 | 8 | 351 | 0.0 | 0.0 | 0.00 | 0.00 | 0.00 | 77 | 1015.5 |
| 20260503023048 | 9 | 351 | 0.0 | 0.0 | 0.00 | 0.00 | 0.00 | 75 | 1015.6 |
| 20260503021542 | 10 | 351 | 0.0 | 0.0 | 0.00 | 0.00 | 0.00 | 74 | 1015.7 |
| 20260503020045 | 9 | 351 | 0.0 | 0.0 | 0.00 | 0.00 | 0.00 | 73 | 1015.6 |
| 20260503014540 | 10 | 360 | 0.0 | 0.0 | 0.00 | 0.00 | 0.00 | 73 | 1015.4 |
| 20260503013038 | 10 | 360 | 0.0 | 0.0 | 0.00 | 0.00 | 0.00 | 72 | 1015.4 |
| 20260503011538 | 10 | 360 | 0.0 | 0.0 | 0.00 | 0.00 | 0.00 | 71 | 1015.5 |
| 20260503010034 | 10 | 360 | 0.0 | 0.0 | 0.00 | 0.00 | 0.00 | 69 | 1015.5 |
| 20260503004536 | 11 | 360 | 0.0 | 0.0 | 0.00 | 0.00 | 0.00 | 68 | 1015.5 |
| 20260503003035 | 11 | 360 | 0.0 | 0.0 | 0.00 | 0.00 | 0.00 | 67 | 1015.6 |
| 20260503001527 | 11 | 360 | 0.0 | 0.0 | 0.00 | 0.00 | 0.00 | 65 | 1015.6 |
| 20260503000025 | 12 | 360 | 0.0 | 0.0 | 0.00 | 0.00 | 0.00 | 64 | 1015.7 |
| 20260502234531 | 12 | 360 | 0.0 | 0.0 | 0.00 | 0.00 | 0.00 | 63 | 1015.8 |
| 20260502233023 | 12 | 360 | 0.0 | 1.6 | 0.00 | 0.00 | 0.00 | 64 | 1015.8 |
| 20260502231526 | 11 | 360 | 0.0 | 0.0 | 0.00 | 0.00 | 0.00 | 64 | 1015.9 |
| 20260502230021 | 12 | 360 | 0.0 | 0.0 | 0.00 | 0.00 | 0.00 | 65 | 1016.0 |